Location: Seven Kings
(51.5667°N, 0.1000°E)
Time: 03:09:40
(UTC+00:00)

Cosmos 1980 Rocket - Pass Details

Date: 29 October 2020
Orbit: 831 x 848 km, 71.0° (Epoch: 27 November)

Event Time Altitude Azimuth Distance (km) Brightness Sun altitude
Rises 19:13:37 0° 201° (SSW) 3,377 5.5 -24.7°
Reaches altitude 10° 19:16:03 10° 199° (SSW) 2,445 4.7 -25.1°
Enters shadow 19:21:25 71° 137° (SE) 882 2.0 -25.9°
